SWA551 KPVD-KRDU

Flight info

Callsign SWA551
Flight time 1h 26m
Altitude 36000
Route KPVD JUMPR RIFLE Q167 ZJAAY TAQLE3 KRDU
Aircraft B738/M-VGDW/C

Departure

Time 2026-04-30 01:13
Airport Rhode Island T. F. Green International Airport (KPVD)

Arrival

Time 2026-04-30 02:39
Airport Raleigh-Durham International Airport (KRDU)
Time Latitude Longitude Altitude Speed Heading
2026-04-30 00:47 41.72827 -71.43353 65 ft 0 kts 201°
2026-04-30 01:05 41.72828 -71.43353 65 ft 2 kts 201°
2026-04-30 01:06 41.72844 -71.43344 60 ft 2 kts 201°
2026-04-30 01:06 41.72860 -71.43336 59 ft 2 kts 201°
2026-04-30 01:06 41.72866 -71.43333 61 ft 0 kts 201°
2026-04-30 01:07 41.72865 -71.43338 60 ft 0 kts 244°
2026-04-30 01:07 41.72867 -71.43342 65 ft 0 kts 283°
2026-04-30 01:07 41.72870 -71.43343 65 ft 0 kts 319°
2026-04-30 01:07 41.72878 -71.43342 60 ft 0 kts 12°
2026-04-30 01:09 41.72909 -71.43328 64 ft 8 kts 21°
2026-04-30 01:10 41.72958 -71.43302 62 ft 7 kts 21°
2026-04-30 01:10 41.73022 -71.43270 60 ft 13 kts 20°
2026-04-30 01:10 41.73055 -71.43254 63 ft 0 kts 20°
2026-04-30 01:10 41.73058 -71.43253 63 ft 0 kts 20°
2026-04-30 01:11 41.73077 -71.43243 61 ft 6 kts 20°
2026-04-30 01:11 41.73120 -71.43227 58 ft 6 kts 17°
2026-04-30 01:12 41.73129 -71.43200 61 ft 3 kts 93°
2026-04-30 01:12 41.73119 -71.43172 58 ft 3 kts 125°
2026-04-30 01:12 41.73101 -71.43151 59 ft 3 kts 142°
2026-04-30 01:12 41.73083 -71.43133 63 ft 4 kts 142°
2026-04-30 01:13 41.72868 -71.42906 61 ft 82 kts 141°
2026-04-30 01:13 41.72224 -71.42195 78 ft 153 kts 138°
2026-04-30 01:13 41.71290 -71.41277 666 ft 176 kts 144°
2026-04-30 01:13 41.70024 -71.40648 1161 ft 212 kts 166°
2026-04-30 01:14 41.68500 -71.40239 1775 ft 229 kts 167°
2026-04-30 01:14 41.66920 -71.39791 2553 ft 235 kts 167°
2026-04-30 01:14 41.65303 -71.39328 3176 ft 243 kts 166°
2026-04-30 01:14 41.63588 -71.38831 3741 ft 256 kts 167°
2026-04-30 01:15 41.61837 -71.38306 4595 ft 260 kts 167°
2026-04-30 01:15 41.60098 -71.37772 5493 ft 259 kts 167°
2026-04-30 01:15 41.58324 -71.37229 6279 ft 265 kts 167°
2026-04-30 01:15 41.56516 -71.36677 7074 ft 267 kts 168°
2026-04-30 01:16 41.54701 -71.36123 7896 ft 269 kts 168°
2026-04-30 01:16 41.52856 -71.35560 8652 ft 273 kts 168°
2026-04-30 01:16 41.50992 -71.34992 9477 ft 276 kts 168°
2026-04-30 01:16 41.49114 -71.34419 10222 ft 279 kts 168°
2026-04-30 01:17 41.47204 -71.33837 10935 ft 283 kts 168°
2026-04-30 01:17 41.45252 -71.33243 11405 ft 297 kts 168°
2026-04-30 01:17 41.43156 -71.32607 11569 ft 320 kts 168°
2026-04-30 01:17 41.40886 -71.32052 11712 ft 341 kts 180°
2026-04-30 01:18 41.38531 -71.32730 11972 ft 355 kts 207°
2026-04-30 01:18 41.36543 -71.34632 12554 ft 361 kts 225°
2026-04-30 01:18 41.34953 -71.37232 13269 ft 363 kts 233°
2026-04-30 01:18 41.33477 -71.39974 13944 ft 366 kts 234°
2026-04-30 01:19 41.32019 -71.42770 14566 ft 369 kts 234°
2026-04-30 01:19 41.30552 -71.45588 15190 ft 371 kts 234°
2026-04-30 01:19 41.29072 -71.48411 15828 ft 374 kts 233°
2026-04-30 01:19 41.27571 -71.51248 16448 ft 376 kts 233°
2026-04-30 01:20 41.26051 -71.54097 17026 ft 380 kts 233°
2026-04-30 01:20 41.24509 -71.56973 17623 ft 383 kts 232°
2026-04-30 01:20 41.22955 -71.59858 18200 ft 386 kts 232°
2026-04-30 01:20 41.21383 -71.62772 18694 ft 389 kts 232°
2026-04-30 01:21 41.19800 -71.65701 19215 ft 391 kts 233°
2026-04-30 01:21 41.18207 -71.68640 19740 ft 393 kts 233°
2026-04-30 01:21 41.16602 -71.71589 20240 ft 395 kts 233°
2026-04-30 01:21 41.14990 -71.74555 20728 ft 398 kts 233°
2026-04-30 01:22 41.13370 -71.77535 21209 ft 400 kts 234°
2026-04-30 01:22 41.11736 -71.80542 21670 ft 403 kts 234°
2026-04-30 01:22 41.10083 -71.83582 22001 ft 407 kts 234°
2026-04-30 01:22 41.08433 -71.86617 22515 ft 407 kts 234°
2026-04-30 01:23 41.06771 -71.89667 22992 ft 408 kts 234°
2026-04-30 01:23 41.05105 -71.92723 23435 ft 410 kts 235°
2026-04-30 01:23 41.03431 -71.95793 23794 ft 412 kts 235°
2026-04-30 01:23 41.01746 -71.98875 24143 ft 413 kts 235°
2026-04-30 01:24 41.00081 -72.01917 24485 ft 415 kts 235°
2026-04-30 01:24 40.98380 -72.05025 24829 ft 417 kts 235°
2026-04-30 01:24 40.96675 -72.08135 25069 ft 420 kts 235°
2026-04-30 01:24 40.94954 -72.11277 25454 ft 421 kts 235°
2026-04-30 01:25 40.93237 -72.14406 25863 ft 420 kts 235°
2026-04-30 01:25 40.91518 -72.17534 26243 ft 421 kts 235°
2026-04-30 01:25 40.89798 -72.20659 26660 ft 420 kts 235°
2026-04-30 01:25 40.88088 -72.23763 27180 ft 416 kts 235°
2026-04-30 01:26 40.86388 -72.26842 27736 ft 412 kts 235°
2026-04-30 01:26 40.84704 -72.29891 28250 ft 409 kts 235°
2026-04-30 01:26 40.83032 -72.32917 28705 ft 408 kts 235°
2026-04-30 01:26 40.81927 -72.34916 29008 ft 406 kts 235°
2026-04-30 01:27 40.80259 -72.37928 29496 ft 404 kts 235°
2026-04-30 01:27 40.78048 -72.41919 30129 ft 401 kts 235°
2026-04-30 01:27 40.76958 -72.43884 30381 ft 400 kts 234°
2026-04-30 01:27 40.75316 -72.46844 30701 ft 400 kts 234°
2026-04-30 01:28 40.73673 -72.49803 31009 ft 400 kts 234°
2026-04-30 01:28 40.72030 -72.52757 31347 ft 399 kts 234°
2026-04-30 01:28 40.70392 -72.55698 31693 ft 398 kts 234°
2026-04-30 01:28 40.68660 -72.58537 32008 ft 398 kts 229°
2026-04-30 01:29 40.66640 -72.61034 32304 ft 399 kts 223°
2026-04-30 01:29 40.64540 -72.63423 32618 ft 398 kts 223°
2026-04-30 01:29 40.62446 -72.65797 32928 ft 397 kts 223°
2026-04-30 01:29 40.60352 -72.68176 33242 ft 397 kts 223°
2026-04-30 01:30 40.58270 -72.70549 33536 ft 396 kts 223°
2026-04-30 01:30 40.56188 -72.72929 33842 ft 395 kts 223°
2026-04-30 01:30 40.54143 -72.75271 34122 ft 394 kts 223°
2026-04-30 01:30 40.52071 -72.77643 34337 ft 394 kts 223°
2026-04-30 01:31 40.49997 -72.80018 34548 ft 395 kts 223°
2026-04-30 01:31 40.47928 -72.82385 34786 ft 394 kts 224°
2026-04-30 01:31 40.45862 -72.84746 35033 ft 393 kts 224°
2026-04-30 01:31 40.43802 -72.87099 35258 ft 393 kts 224°
2026-04-30 01:32 40.41737 -72.89456 35461 ft 393 kts 224°
2026-04-30 01:32 40.39679 -72.91802 35682 ft 392 kts 224°
2026-04-30 01:32 40.37621 -72.94146 35912 ft 391 kts 224°
2026-04-30 01:32 40.35558 -72.96496 35925 ft 395 kts 224°
2026-04-30 01:33 40.31397 -73.01228 35949 ft 401 kts 224°
2026-04-30 01:33 40.27145 -73.06055 35956 ft 408 kts 224°
2026-04-30 01:34 40.22818 -73.10954 35956 ft 414 kts 224°
2026-04-30 01:34 40.18429 -73.15911 35951 ft 418 kts 224°
2026-04-30 01:35 40.14014 -73.20890 35949 ft 420 kts 224°
2026-04-30 01:35 40.09585 -73.25876 35951 ft 420 kts 224°
2026-04-30 01:36 40.05144 -73.30860 35946 ft 420 kts 224°
2026-04-30 01:36 40.00717 -73.35817 35943 ft 418 kts 224°
2026-04-30 01:37 39.96343 -73.40711 35950 ft 417 kts 224°
2026-04-30 01:37 39.91939 -73.45630 35948 ft 415 kts 224°
2026-04-30 01:38 39.87555 -73.50519 35947 ft 414 kts 224°
2026-04-30 01:38 39.83180 -73.55387 35949 ft 413 kts 224°
2026-04-30 01:39 39.78801 -73.60250 35948 ft 413 kts 224°
2026-04-30 01:39 39.74432 -73.65095 35950 ft 412 kts 224°
2026-04-30 01:40 39.70092 -73.69901 35947 ft 412 kts 224°
2026-04-30 01:40 39.65732 -73.74722 35948 ft 412 kts 224°
2026-04-30 01:41 39.61363 -73.79545 35945 ft 412 kts 224°
2026-04-30 01:41 39.56994 -73.84360 35951 ft 412 kts 224°
2026-04-30 01:42 39.52622 -73.89169 35952 ft 412 kts 224°
2026-04-30 01:42 39.48240 -73.93982 35946 ft 413 kts 224°
2026-04-30 01:43 39.43881 -73.98763 35949 ft 413 kts 225°
2026-04-30 01:43 39.39484 -74.03576 35948 ft 413 kts 225°
2026-04-30 01:44 39.35089 -74.08385 35945 ft 414 kts 225°
2026-04-30 01:44 39.30693 -74.13192 35948 ft 414 kts 225°
2026-04-30 01:45 39.26290 -74.17999 35950 ft 414 kts 225°
2026-04-30 01:45 39.21908 -74.22774 35945 ft 414 kts 225°
2026-04-30 01:46 39.17502 -74.27568 35937 ft 414 kts 225°
2026-04-30 01:46 39.13095 -74.32354 35940 ft 414 kts 225°
2026-04-30 01:47 39.08688 -74.37134 35936 ft 413 kts 225°
2026-04-30 01:47 39.04307 -74.41876 35946 ft 413 kts 225°
2026-04-30 01:48 38.99902 -74.46639 35943 ft 413 kts 225°
2026-04-30 01:48 38.95494 -74.51395 35935 ft 413 kts 225°
2026-04-30 01:49 38.91158 -74.56228 35934 ft 411 kts 228°
2026-04-30 01:49 38.86963 -74.61205 35925 ft 411 kts 228°
2026-04-30 01:50 38.82791 -74.66126 35925 ft 410 kts 228°
2026-04-30 01:50 38.78568 -74.71058 35922 ft 410 kts 228°
2026-04-30 01:51 38.74332 -74.75952 35924 ft 410 kts 227°
2026-04-30 01:51 38.69904 -74.80603 35920 ft 411 kts 225°
2026-04-30 01:52 38.65457 -74.85171 35920 ft 409 kts 225°
2026-04-30 01:52 38.61060 -74.89725 35915 ft 408 kts 226°
2026-04-30 01:53 38.56654 -74.94306 35913 ft 408 kts 226°
2026-04-30 01:53 38.52260 -74.98877 35907 ft 406 kts 227°
2026-04-30 01:54 38.48014 -75.03612 35904 ft 405 kts 228°
2026-04-30 01:54 38.43629 -75.08168 35909 ft 408 kts 224°
2026-04-30 01:55 38.39044 -75.12467 35903 ft 408 kts 223°
2026-04-30 01:55 38.34498 -75.16721 35901 ft 408 kts 224°
2026-04-30 01:56 38.29939 -75.21027 35905 ft 407 kts 224°
2026-04-30 01:56 38.25390 -75.25337 35910 ft 407 kts 224°
2026-04-30 01:57 38.20835 -75.29647 35894 ft 407 kts 224°
2026-04-30 01:57 38.16293 -75.33939 35899 ft 406 kts 224°
2026-04-30 01:58 38.11787 -75.38191 35898 ft 406 kts 224°
2026-04-30 01:58 38.07247 -75.42466 35903 ft 406 kts 224°
2026-04-30 01:59 38.00882 -75.49402 35899 ft 400 kts 230°
2026-04-30 02:00 37.96811 -75.54213 35907 ft 400 kts 230°
2026-04-30 02:00 37.92734 -75.59000 35913 ft 400 kts 229°
2026-04-30 02:01 37.88646 -75.63778 35905 ft 399 kts 229°
2026-04-30 02:01 37.84579 -75.68518 35898 ft 399 kts 229°
2026-04-30 02:02 37.80487 -75.73280 35891 ft 399 kts 229°
2026-04-30 02:02 37.76393 -75.78037 35895 ft 399 kts 229°
2026-04-30 02:03 37.72317 -75.82766 35895 ft 400 kts 229°
2026-04-30 02:03 37.68216 -75.87518 35897 ft 400 kts 229°
2026-04-30 02:04 37.64109 -75.92269 35891 ft 400 kts 229°
2026-04-30 02:04 37.60096 -75.97044 35884 ft 396 kts 234°
2026-04-30 02:04 37.58350 -75.99713 35771 ft 395 kts 237°
2026-04-30 02:05 37.56606 -76.02456 34955 ft 402 kts 237°
2026-04-30 02:05 37.54860 -76.05196 34210 ft 401 kts 237°
2026-04-30 02:05 37.53108 -76.07935 33309 ft 402 kts 237°
2026-04-30 02:05 37.51371 -76.10640 32378 ft 405 kts 236°
2026-04-30 02:06 37.49589 -76.13410 31459 ft 408 kts 236°
2026-04-30 02:06 37.47815 -76.16160 30584 ft 411 kts 236°
2026-04-30 02:06 37.46008 -76.18957 29920 ft 409 kts 236°
2026-04-30 02:06 37.44221 -76.21712 29332 ft 403 kts 236°
2026-04-30 02:07 37.42459 -76.24429 28813 ft 397 kts 236°
2026-04-30 02:07 37.40725 -76.27104 28288 ft 391 kts 236°
2026-04-30 02:07 37.39013 -76.29742 27755 ft 386 kts 236°
2026-04-30 02:07 37.37329 -76.32339 27246 ft 382 kts 236°
2026-04-30 02:08 37.35679 -76.34882 26741 ft 378 kts 236°
2026-04-30 02:08 37.34021 -76.37435 26243 ft 374 kts 236°
2026-04-30 02:08 37.32376 -76.39968 25742 ft 371 kts 236°
2026-04-30 02:08 37.30751 -76.42467 25267 ft 368 kts 236°
2026-04-30 02:09 37.29139 -76.44945 24788 ft 365 kts 236°
2026-04-30 02:09 37.27535 -76.47406 24310 ft 363 kts 236°
2026-04-30 02:09 37.25957 -76.49827 23904 ft 359 kts 236°
2026-04-30 02:09 37.24406 -76.52227 23755 ft 349 kts 237°
2026-04-30 02:10 37.22905 -76.54567 23656 ft 343 kts 237°
2026-04-30 02:10 37.21391 -76.56941 23542 ft 353 kts 237°
2026-04-30 02:10 37.19838 -76.59379 23429 ft 360 kts 237°
2026-04-30 02:10 37.18275 -76.61822 23288 ft 358 kts 236°
2026-04-30 02:11 37.16722 -76.64241 23161 ft 355 kts 236°
2026-04-30 02:11 37.15173 -76.66649 23040 ft 353 kts 236°
2026-04-30 02:11 37.13650 -76.69018 22934 ft 352 kts 236°
2026-04-30 02:11 37.12119 -76.71398 22827 ft 351 kts 236°
2026-04-30 02:12 37.10585 -76.73782 22717 ft 351 kts 236°
2026-04-30 02:12 37.09053 -76.76161 22612 ft 351 kts 236°
2026-04-30 02:12 37.07519 -76.78541 22503 ft 352 kts 236°
2026-04-30 02:12 37.05983 -76.80924 22408 ft 352 kts 236°
2026-04-30 02:13 37.04434 -76.83323 22292 ft 353 kts 236°
2026-04-30 02:13 37.02884 -76.85724 22183 ft 354 kts 236°
2026-04-30 02:13 37.01332 -76.88126 22079 ft 355 kts 236°
2026-04-30 02:13 36.99800 -76.90495 21958 ft 355 kts 236°
2026-04-30 02:14 36.98244 -76.92897 21848 ft 355 kts 236°
2026-04-30 02:14 36.96679 -76.95310 21597 ft 358 kts 236°
2026-04-30 02:14 36.95117 -76.97712 21341 ft 354 kts 236°
2026-04-30 02:14 36.93577 -77.00075 21093 ft 348 kts 236°
2026-04-30 02:15 36.92545 -77.01659 20934 ft 347 kts 236°
2026-04-30 02:15 36.91018 -77.04006 20692 ft 348 kts 236°
2026-04-30 02:15 36.89488 -77.06357 20452 ft 349 kts 236°
2026-04-30 02:15 36.87975 -77.08680 20218 ft 349 kts 236°
2026-04-30 02:16 36.86444 -77.11030 19968 ft 349 kts 236°
2026-04-30 02:16 36.84907 -77.13386 19720 ft 349 kts 236°
2026-04-30 02:16 36.83371 -77.15738 19475 ft 349 kts 236°
2026-04-30 02:16 36.81841 -77.18081 19229 ft 348 kts 236°
2026-04-30 02:17 36.80311 -77.20420 18982 ft 347 kts 236°
2026-04-30 02:17 36.78784 -77.22751 18746 ft 346 kts 236°
2026-04-30 02:17 36.77244 -77.25065 18499 ft 345 kts 235°
2026-04-30 02:17 36.75726 -77.27325 18264 ft 344 kts 235°
2026-04-30 02:18 36.74190 -77.29606 18001 ft 343 kts 235°
2026-04-30 02:18 36.72656 -77.31882 17763 ft 341 kts 235°
2026-04-30 02:18 36.71142 -77.34127 17612 ft 337 kts 235°
2026-04-30 02:18 36.69636 -77.36363 17369 ft 336 kts 235°
2026-04-30 02:19 36.68134 -77.38593 17140 ft 336 kts 235°
2026-04-30 02:19 36.66635 -77.40819 16905 ft 335 kts 235°
2026-04-30 02:19 36.65137 -77.43042 16674 ft 335 kts 235°
2026-04-30 02:19 36.63636 -77.45268 16435 ft 335 kts 235°
2026-04-30 02:20 36.62135 -77.47493 16205 ft 335 kts 235°
2026-04-30 02:20 36.60635 -77.49715 15961 ft 335 kts 234°
2026-04-30 02:20 36.59154 -77.51907 15734 ft 335 kts 234°
2026-04-30 02:20 36.57653 -77.54128 15499 ft 335 kts 234°
2026-04-30 02:21 36.56154 -77.56344 15262 ft 335 kts 234°
2026-04-30 02:21 36.54654 -77.58559 15026 ft 334 kts 234°
2026-04-30 02:21 36.53158 -77.60767 14787 ft 333 kts 234°
2026-04-30 02:21 36.51668 -77.62965 14549 ft 332 kts 234°
2026-04-30 02:22 36.50185 -77.65150 14316 ft 330 kts 234°
2026-04-30 02:22 36.48707 -77.67328 14077 ft 329 kts 234°
2026-04-30 02:22 36.47232 -77.69500 13852 ft 328 kts 234°
2026-04-30 02:22 36.45763 -77.71661 13617 ft 327 kts 234°
2026-04-30 02:23 36.44298 -77.73815 13358 ft 325 kts 234°
2026-04-30 02:23 36.42839 -77.75960 13114 ft 324 kts 234°
2026-04-30 02:23 36.41386 -77.78094 12878 ft 322 kts 234°
2026-04-30 02:23 36.39958 -77.80190 12654 ft 321 kts 234°
2026-04-30 02:24 36.38519 -77.82300 12426 ft 320 kts 234°
2026-04-30 02:24 36.37083 -77.84406 12197 ft 318 kts 234°
2026-04-30 02:24 36.35653 -77.86501 11975 ft 317 kts 234°
2026-04-30 02:24 36.34226 -77.88591 11751 ft 316 kts 234°
2026-04-30 02:25 36.32803 -77.90673 11525 ft 315 kts 234°
2026-04-30 02:25 36.31387 -77.92744 11307 ft 314 kts 234°
2026-04-30 02:25 36.29992 -77.94783 11089 ft 313 kts 234°
2026-04-30 02:25 36.28585 -77.96840 10869 ft 311 kts 234°
2026-04-30 02:26 36.27197 -77.98862 10646 ft 304 kts 233°
2026-04-30 02:26 36.25841 -78.00831 10426 ft 297 kts 233°
2026-04-30 02:26 36.24516 -78.02755 10227 ft 290 kts 233°
2026-04-30 02:26 36.23236 -78.04651 10008 ft 283 kts 238°
2026-04-30 02:27 36.22325 -78.06770 9669 ft 277 kts 249°
2026-04-30 02:27 36.21547 -78.08951 9302 ft 276 kts 249°
2026-04-30 02:27 36.20766 -78.11127 8974 ft 274 kts 250°
2026-04-30 02:27 36.20046 -78.13255 8765 ft 268 kts 250°
2026-04-30 02:28 36.19348 -78.15366 8559 ft 262 kts 251°
2026-04-30 02:28 36.18666 -78.17433 8351 ft 257 kts 250°
2026-04-30 02:28 36.17993 -78.19459 8167 ft 252 kts 251°
2026-04-30 02:28 36.17332 -78.21439 7970 ft 247 kts 250°
2026-04-30 02:29 36.16681 -78.23381 7789 ft 241 kts 250°
2026-04-30 02:29 36.16042 -78.25283 7605 ft 237 kts 250°
2026-04-30 02:29 36.15408 -78.27164 7424 ft 235 kts 251°
2026-04-30 02:29 36.14854 -78.29032 7259 ft 233 kts 258°
2026-04-30 02:30 36.14496 -78.30982 7087 ft 231 kts 261°
2026-04-30 02:30 36.14176 -78.32912 6899 ft 227 kts 261°
2026-04-30 02:30 36.13856 -78.34802 6727 ft 222 kts 260°
2026-04-30 02:30 36.13533 -78.36655 6558 ft 218 kts 260°
2026-04-30 02:31 36.13215 -78.38458 6413 ft 210 kts 260°
2026-04-30 02:31 36.12908 -78.40176 6248 ft 200 kts 260°
2026-04-30 02:31 36.12613 -78.41827 6075 ft 194 kts 260°
2026-04-30 02:31 36.12129 -78.43391 5963 ft 198 kts 241°
2026-04-30 02:32 36.11369 -78.44760 5860 ft 192 kts 240°
2026-04-30 02:32 36.10621 -78.46126 5752 ft 190 kts 241°
2026-04-30 02:32 36.09879 -78.47495 5673 ft 198 kts 240°
2026-04-30 02:32 36.09104 -78.48927 5610 ft 202 kts 240°
2026-04-30 02:33 36.08320 -78.50377 5514 ft 204 kts 240°
2026-04-30 02:33 36.07533 -78.51832 5402 ft 203 kts 240°
2026-04-30 02:33 36.06747 -78.53283 5288 ft 202 kts 240°
2026-04-30 02:33 36.05968 -78.54723 5192 ft 201 kts 240°
2026-04-30 02:34 36.05189 -78.56163 5087 ft 201 kts 240°
2026-04-30 02:34 36.04398 -78.57566 4892 ft 206 kts 234°
2026-04-30 02:34 36.03389 -78.58874 4656 ft 211 kts 229°
2026-04-30 02:34 36.02346 -78.60139 4362 ft 209 kts 229°
2026-04-30 02:35 36.01320 -78.61389 4082 ft 205 kts 229°
2026-04-30 02:35 36.00308 -78.62622 3744 ft 204 kts 228°
2026-04-30 02:35 35.99301 -78.63859 3401 ft 204 kts 228°
2026-04-30 02:35 35.98297 -78.65098 3072 ft 203 kts 228°
2026-04-30 02:36 35.97313 -78.66311 2854 ft 197 kts 227°
2026-04-30 02:36 35.96363 -78.67473 2706 ft 188 kts 227°
2026-04-30 02:36 35.95448 -78.68601 2478 ft 183 kts 227°
2026-04-30 02:36 35.94569 -78.69691 2253 ft 179 kts 228°
2026-04-30 02:37 35.93709 -78.70756 2016 ft 170 kts 227°
2026-04-30 02:37 35.92905 -78.71752 1782 ft 160 kts 227°
2026-04-30 02:37 35.92143 -78.72697 1587 ft 151 kts 227°
2026-04-30 02:37 35.91432 -78.73579 1422 ft 137 kts 226°
2026-04-30 02:38 35.90780 -78.74388 1217 ft 143 kts 227°
2026-04-30 02:38 35.90078 -78.75259 1053 ft 145 kts 226°
2026-04-30 02:38 35.89360 -78.76151 886 ft 146 kts 225°
2026-04-30 02:38 35.88651 -78.77038 689 ft 144 kts 223°
2026-04-30 02:39 35.87950 -78.77902 467 ft 138 kts 221°
2026-04-30 02:39 35.87346 -78.78644 430 ft 105 kts 225°
2026-04-30 02:39 35.86987 -78.79089 414 ft 40 kts 225°
2026-04-30 02:39 35.86812 -78.79324 413 ft 30 kts 241°
2026-04-30 02:40 35.86786 -78.79425 417 ft 7 kts 269°
2026-04-30 02:40 35.86818 -78.79459 414 ft 7 kts
2026-04-30 02:40 35.86861 -78.79432 413 ft 7 kts 39°
2026-04-30 02:40 35.86899 -78.79393 415 ft 7 kts 40°
2026-04-30 02:41 35.86948 -78.79331 413 ft 13 kts 47°
2026-04-30 02:41 35.87010 -78.79251 418 ft 13 kts 46°
2026-04-30 02:41 35.87071 -78.79172 409 ft 13 kts 45°
2026-04-30 02:41 35.87134 -78.79100 418 ft 12 kts 42°
2026-04-30 02:42 35.87194 -78.79037 415 ft 6 kts 23°
2026-04-30 02:42 35.87229 -78.79046 424 ft 4 kts 334°
2026-04-30 02:42 35.87246 -78.79070 418 ft 4 kts 318°
2026-04-30 02:42 35.87269 -78.79081 413 ft 4 kts 352°
2026-04-30 02:43 35.87293 -78.79082 423 ft 1 kts
2026-04-30 02:43 35.87297 -78.79081 423 ft 0 kts